Time,TemperatureF,DewpointF,PressureIn,WindDirection,WindDirectionDegrees,WindSpeedMPH,WindSpeedGustMPH,Humidity,HourlyPrecipIn,Conditions,Clouds,dailyrainin,SoftwareType,DateUTC
2014-09-21 00:04:00,80.1,83.9,29.93,WSW,247,2.2,5.8,79,0.00,,,0.00,,2014-09-21 04:04:00,
2014-09-21 00:09:00,80.1,83.7,29.93,WSW,247,5.6,6.9,79,0.00,,,0.00,,2014-09-21 04:09:00,
2014-09-21 00:14:00,80.0,83.5,29.94,SSW,202,2.5,4.7,78,0.00,,,0.00,,2014-09-21 04:14:00,
2014-09-21 00:19:00,80.0,83.8,29.94,SW,225,2.9,4.0,78,0.00,,,0.00,,2014-09-21 04:19:00,
2014-09-21 00:24:00,80.1,83.8,29.94,SSW,202,1.9,4.7,78,0.00,,,0.00,,2014-09-21 04:24:00,
2014-09-21 00:29:00,80.0,83.8,29.93,SW,225,4.3,6.7,78,0.00,,,0.00,,2014-09-21 04:29:00,
2014-09-21 00:34:00,80.0,83.6,29.93,WSW,247,2.2,4.0,78,0.00,,,0.00,,2014-09-21 04:34:00,
2014-09-21 00:39:00,79.9,83.6,29.93,West,270,3.3,3.6,78,0.00,,,0.00,,2014-09-21 04:39:00,
2014-09-21 00:44:00,79.9,83.8,29.93,West,270,3.4,6.0,78,0.00,,,0.00,,2014-09-21 04:44:00,
2014-09-21 00:49:00,79.8,83.9,29.93,West,270,1.4,1.6,78,0.00,,,0.00,,2014-09-21 04:49:00,
2014-09-21 00:54:00,79.8,83.8,29.93,West,270,3.1,4.7,78,0.00,,,0.00,,2014-09-21 04:54:00,
2014-09-21 00:55:00,79.8,83.8,29.93,WSW,247,2.6,2.6,78,0.00,,,0.00,,2014-09-21 04:55:00,
2014-09-21 01:00:00,79.8,83.6,29.93,SW,225,2.5,3.4,78,0.00,,,0.00,,2014-09-21 05:00:00,
2014-09-21 01:05:00,79.8,83.8,29.93,WSW,247,5.2,6.3,77,0.00,,,0.00,,2014-09-21 05:05:00,
2014-09-21 01:10:00,79.9,83.7,29.93,SW,225,3.8,5.6,77,0.00,,,0.00,,2014-09-21 05:10:00,
2014-09-21 01:15:00,79.9,83.8,29.93,SSW,202,2.2,4.5,77,0.00,,,0.00,,2014-09-21 05:15:00,
2014-09-21 01:20:00,79.9,83.7,29.93,SSW,202,1.8,3.8,77,0.00,,,0.00,,2014-09-21 05:20:00,
2014-09-21 01:25:00,79.9,83.6,29.93,WSW,247,2.8,4.3,77,0.00,,,0.00,,2014-09-21 05:25:00,
2014-09-21 01:30:00,79.9,83.5,29.93,South,180,2.2,3.8,77,0.00,,,0.00,,2014-09-21 05:30:00,
2014-09-21 01:35:00,79.8,83.7,29.93,South,180,2.2,4.0,77,0.00,,,0.00,,2014-09-21 05:35:00,
2014-09-21 01:40:00,79.8,83.8,29.93,SSW,202,1.8,3.6,77,0.00,,,0.00,,2014-09-21 05:40:00,
2014-09-21 01:45:00,79.8,83.9,29.93,SSW,202,0.3,3.6,77,0.00,,,0.00,,2014-09-21 05:45:00,
2014-09-21 01:50:00,79.8,83.8,29.93,South,180,1.5,3.1,77,0.00,,,0.00,,2014-09-21 05:50:00,
2014-09-21 01:55:00,79.7,83.6,29.93,SW,225,3.0,5.6,77,0.00,,,0.00,,2014-09-21 05:55:00,
2014-09-21 02:00:00,79.7,83.6,29.93,SW,225,4.4,5.4,77,0.00,,,0.00,,2014-09-21 06:00:00,
2014-09-21 02:05:00,79.5,83.7,29.92,SW,225,3.0,4.7,78,0.00,,,0.00,,2014-09-21 06:05:00,
2014-09-21 02:10:00,79.6,83.7,29.92,WSW,247,2.6,4.0,78,0.00,,,0.00,,2014-09-21 06:10:00,
2014-09-21 02:15:00,79.6,83.9,29.92,SW,225,1.6,2.2,78,0.00,,,0.00,,2014-09-21 06:15:00,
2014-09-21 02:20:00,79.6,83.7,29.92,WSW,247,1.4,3.1,78,0.00,,,0.00,,2014-09-21 06:20:00,
2014-09-21 02:25:00,79.6,83.7,29.91,SW,225,3.4,4.5,78,0.00,,,0.00,,2014-09-21 06:25:00,
2014-09-21 02:30:00,79.6,84.0,29.91,WSW,247,2.4,3.6,78,0.00,,,0.00,,2014-09-21 06:30:00,
2014-09-21 02:35:00,79.6,84.2,29.91,West,270,2.6,5.4,78,0.00,,,0.00,,2014-09-21 06:35:00,
2014-09-21 02:40:00,79.6,84.2,29.91,West,270,2.6,2.9,78,0.00,,,0.00,,2014-09-21 06:40:00,
2014-09-21 02:45:00,79.6,83.5,29.91,WSW,247,1.9,3.1,78,0.00,,,0.00,,2014-09-21 06:45:00,
2014-09-21 02:50:00,79.6,83.4,29.91,WSW,247,0.9,1.8,78,0.00,,,0.00,,2014-09-21 06:50:00,
2014-09-21 02:55:00,79.7,84.1,29.91,WSW,247,1.7,3.6,79,0.00,,,0.00,,2014-09-21 06:55:00,
2014-09-21 03:00:00,79.8,83.5,29.91,SW,225,1.0,1.1,78,0.00,,,0.00,,2014-09-21 07:00:00,
2014-09-21 03:05:00,79.7,83.9,29.91,WSW,247,2.8,3.8,79,0.00,,,0.00,,2014-09-21 07:05:00,
2014-09-21 03:10:00,79.8,83.8,29.91,SW,225,2.1,2.2,79,0.00,,,0.00,,2014-09-21 07:10:00,
2014-09-21 03:15:00,79.7,83.7,29.91,SW,225,1.3,4.5,79,0.00,,,0.00,,2014-09-21 07:15:00,
2014-09-21 03:20:00,79.7,83.6,29.91,SW,225,1.2,3.8,79,0.00,,,0.00,,2014-09-21 07:20:00,
2014-09-21 03:25:00,79.8,83.8,29.91,West,270,0.2,2.7,79,0.00,,,0.00,,2014-09-21 07:25:00,
2014-09-21 03:30:00,79.8,83.7,29.92,SW,225,1.3,1.8,79,0.00,,,0.00,,2014-09-21 07:30:00,
2014-09-21 03:35:00,79.9,83.8,29.92,SW,225,2.4,3.8,79,0.00,,,0.00,,2014-09-21 07:35:00,
2014-09-21 03:40:00,79.9,83.8,29.91,SSW,202,2.8,4.5,79,0.00,,,0.00,,2014-09-21 07:40:00,
2014-09-21 03:45:00,79.9,83.6,29.91,SW,225,2.0,2.9,79,0.00,,,0.00,,2014-09-21 07:45:00,
2014-09-21 03:50:00,80.0,83.5,29.91,SW,225,2.6,3.4,79,0.00,,,0.00,,2014-09-21 07:50:00,
2014-09-21 03:55:00,79.9,83.2,29.91,SW,225,2.3,3.4,79,0.00,,,0.00,,2014-09-21 07:55:00,
2014-09-21 04:00:00,79.9,83.5,29.91,SW,225,2.7,3.4,79,0.00,,,0.00,,2014-09-21 08:00:00,
2014-09-21 04:05:00,79.9,83.4,29.91,SW,225,1.8,2.9,79,0.00,,,0.00,,2014-09-21 08:05:00,
2014-09-21 04:10:00,80.0,83.7,29.91,SW,225,1.0,2.5,79,0.00,,,0.00,,2014-09-21 08:10:00,
2014-09-21 04:15:00,79.9,83.4,29.91,SW,225,2.4,4.0,79,0.00,,,0.00,,2014-09-21 08:15:00,
2014-09-21 04:20:00,79.9,83.5,29.91,SW,225,3.2,5.6,79,0.00,,,0.00,,2014-09-21 08:20:00,
2014-09-21 04:26:00,79.9,83.4,29.91,SW,225,2.8,3.6,79,0.00,,,0.00,,2014-09-21 08:26:00,
2014-09-21 04:31:00,79.9,83.4,29.91,SSW,202,1.6,3.4,79,0.00,,,0.00,,2014-09-21 08:31:00,
2014-09-21 04:36:00,79.9,83.3,29.91,SSW,202,0.9,2.9,79,0.00,,,0.00,,2014-09-21 08:36:00,
2014-09-21 04:41:00,79.9,83.2,29.91,SW,225,3.7,4.7,79,0.00,,,0.00,,2014-09-21 08:41:00,
2014-09-21 04:46:00,79.9,83.3,29.91,SSW,202,1.8,2.5,79,0.00,,,0.00,,2014-09-21 08:46:00,
2014-09-21 04:47:00,79.9,83.4,29.91,SSW,202,1.1,2.5,79,0.00,,,0.00,,2014-09-21 08:47:00,
2014-09-21 04:52:00,79.9,83.2,29.91,SSW,202,0.5,1.1,79,0.00,,,0.00,,2014-09-21 08:52:00,
2014-09-21 04:57:00,80.0,83.2,29.91,SW,225,3.0,5.4,79,0.00,,,0.00,,2014-09-21 08:57:00,
2014-09-21 05:02:00,79.9,83.1,29.91,South,180,1.3,4.0,79,0.00,,,0.00,,2014-09-21 09:02:00,
2014-09-21 05:07:00,79.9,83.2,29.91,South,180,1.7,3.6,79,0.00,,,0.00,,2014-09-21 09:07:00,
2014-09-21 05:12:00,79.9,83.1,29.91,South,180,0.7,2.0,79,0.00,,,0.00,,2014-09-21 09:12:00,
2014-09-21 05:17:00,79.8,83.2,29.91,South,180,0.1,0.4,79,0.00,,,0.00,,2014-09-21 09:17:00,
2014-09-21 05:22:00,79.9,83.2,29.91,SSW,202,0.0,0.0,79,0.00,,,0.00,,2014-09-21 09:22:00,
2014-09-21 05:27:00,79.9,83.4,29.91,SW,225,0.0,0.0,79,0.00,,,0.00,,2014-09-21 09:27:00,
2014-09-21 05:32:00,79.9,83.6,29.91,West,270,0.0,0.0,79,0.00,,,0.00,,2014-09-21 09:32:00,
2014-09-21 05:37:00,79.9,83.7,29.91,West,270,0.0,0.0,80,0.00,,,0.00,,2014-09-21 09:37:00,
2014-09-21 05:42:00,79.8,83.9,29.91,WSW,247,0.1,0.0,80,0.00,,,0.00,,2014-09-21 09:42:00,
2014-09-21 05:47:00,79.9,83.5,29.91,WSW,247,0.0,0.0,80,0.00,,,0.00,,2014-09-21 09:47:00,
2014-09-21 05:52:00,79.9,83.5,29.91,WSW,247,0.0,0.0,80,0.00,,,0.00,,2014-09-21 09:52:00,
2014-09-21 05:57:00,80.0,83.8,29.92,SSW,202,1.2,1.8,80,0.00,,,0.00,,2014-09-21 09:57:00,
2014-09-21 06:02:00,80.0,83.9,29.92,SW,225,3.3,4.0,80,0.00,,,0.00,,2014-09-21 10:02:00,
2014-09-21 06:07:00,80.0,83.7,29.92,South,180,0.2,1.6,80,0.00,,,0.00,,2014-09-21 10:07:00,
2014-09-21 06:12:00,80.0,84.7,29.92,SSW,202,0.0,0.0,80,0.00,,,0.00,,2014-09-21 10:12:00,
2014-09-21 06:17:00,80.0,83.5,29.92,West,270,0.0,0.0,80,0.00,,,0.00,,2014-09-21 10:17:00,
2014-09-21 06:22:00,80.0,83.5,29.92,West,270,0.0,0.0,80,0.00,,,0.00,,2014-09-21 10:22:00,
2014-09-21 06:27:00,80.1,83.9,29.92,NW,315,1.8,2.5,80,0.00,,,0.00,,2014-09-21 10:27:00,
2014-09-21 06:32:00,80.0,83.6,29.92,North,0,3.2,3.2,80,0.00,,,0.00,,2014-09-21 10:32:00,
2014-09-21 06:37:00,79.9,84.7,29.92,NNW,337,4.7,5.4,80,0.00,,,0.00,,2014-09-21 10:37:00,
2014-09-21 06:40:00,79.9,84.9,29.93,NNW,337,3.4,6.3,81,0.00,,,0.00,,2014-09-21 10:40:00,
2014-09-21 06:45:00,79.8,83.7,29.93,NNW,337,0.0,0.0,80,0.00,,,0.00,,2014-09-21 10:45:00,
2014-09-21 06:46:00,79.8,83.5,29.94,NNW,337,0.0,0.0,80,0.00,,,0.00,,2014-09-21 10:46:00,
2014-09-21 06:51:00,79.8,83.3,29.94,WSW,247,0.0,0.0,81,0.00,,,0.00,,2014-09-21 10:51:00,
2014-09-21 06:56:00,79.9,83.1,29.94,WSW,247,0.7,1.1,81,0.00,,,0.00,,2014-09-21 10:56:00,
2014-09-21 07:01:00,79.9,83.4,29.94,SW,225,1.3,2.0,81,0.00,,,0.00,,2014-09-21 11:01:00,
2014-09-21 07:06:00,79.9,83.3,29.94,SW,225,0.0,0.0,81,0.00,,,0.00,,2014-09-21 11:06:00,
2014-09-21 07:11:00,79.9,83.9,29.94,WSW,247,0.0,0.0,81,0.00,,,0.00,,2014-09-21 11:11:00,
2014-09-21 07:16:00,80.0,83.4,29.94,West,270,0.0,0.0,81,0.00,,,0.00,,2014-09-21 11:16:00,
2014-09-21 07:21:00,80.0,83.4,29.95,WNW,292,1.5,2.5,80,0.00,,,0.00,,2014-09-21 11:21:00,
2014-09-21 07:26:00,80.1,83.3,29.95,NW,315,0.8,1.3,80,0.00,,,0.00,,2014-09-21 11:26:00,
2014-09-21 07:31:00,80.1,84.2,29.95,WNW,292,0.0,0.0,80,0.00,,,0.00,,2014-09-21 11:31:00,
2014-09-21 07:36:00,80.1,83.9,29.95,WNW,292,0.0,0.0,81,0.00,,,0.00,,2014-09-21 11:36:00,
2014-09-21 07:41:00,80.1,84.2,29.95,West,270,0.1,0.0,81,0.00,,,0.00,,2014-09-21 11:41:00,
2014-09-21 07:46:00,80.1,84.0,29.96,West,270,0.0,1.6,81,0.00,,,0.00,,2014-09-21 11:46:00,
2014-09-21 07:51:00,80.2,84.6,29.96,WSW,247,0.8,1.6,81,0.00,,,0.00,,2014-09-21 11:51:00,
2014-09-21 07:56:00,80.3,84.5,29.96,NW,315,0.0,0.0,81,0.00,,,0.00,,2014-09-21 11:56:00,
2014-09-21 08:01:00,80.5,84.3,29.96,WSW,247,1.3,2.5,81,0.00,,,0.00,,2014-09-21 12:01:00,